This demonstration page uses our WeatherBlox Daily Observations layout. Learn more.

Left ArrowRight Arrow

36.19886, -115.1175

Hourly Observations for May 29, 2022

Temp ( °F °C ) Dew Point ( °F °C ) Humidity (%) Winds ( mph kmh ) Pressure ( in mb ) Visibility ( mi km ) Precip ( " mm )
12:53 am 00:53 Clear 78 25.6 39 3.9 25 25 S 9 15 29.46 998 9 14 0.00 0.00
1:53 am 01:53 Clear 76 24.4 39 3.9 26 26 NE 6 9 29.47 998 9 14 0.00 0.00
2:53 am 02:53 Clear 74 23.3 39 3.9 28 28 NNE 6 9 29.47 998 7 11 0.00 0.00
3:53 am 03:53 Clear 74 23.3 39 3.9 28 28 WSW 5 7 29.48 998 7 11 0.00 0.00
4:53 am 04:53 Clear 74 23.3 40 4.4 29 29 Calm 29.50 999 9 14 0.00 0.00
5:53 am 05:53 Sunny 76 24.4 35 1.7 23 23 NW 20 31 29.51 999 10 16 0.00 0.00
6:53 am 06:53 Sunny 76 24.4 37 2.8 24 24 NNW 22 35 29.53 1000 9 14 0.00 0.00
7:53 am 07:53 Sunny 78 25.6 26 -3.3 15 15 NNW 24 39 29.56 1001 10 16 0.00 0.00
8:53 am 08:53 Sunny 80 26.7 22 -5.6 11 11 NW 23 37 29.58 1002 10 16 0.00 0.00
9:53 am 09:53 Sunny 81 27.2 19 -7.2 10 10 NNW 26 43 29.60 1002 10 16 0.00 0.00
10:53 am 10:53 Sunny 82 27.8 18 -7.8 9 9 NNW 23 37 29.61 1003 10 16 0.00 0.00
11:53 am 11:53 Sunny 86 30 13 -10.6 6 6 NNW 21 33 29.59 1002 10 16 0.00 0.00
12:53 pm 12:53 Sunny 87 30.6 13 -10.6 6 6 NNW 26 43 29.56 1001 10 16 0.00 0.00
1:53 pm 13:53 Sunny 88 31.1 8 -13.3 5 5 NNW 22 35 29.57 1001 10 16 0.00 0.00
2:53 pm 14:53 Sunny 89 31.7 8 -13.3 5 5 NW 31 50 29.54 1001 10 16 0.00 0.00
3:53 pm 15:53 Sunny 89 31.7 7 -13.9 4 4 NW 22 35 29.54 1000 10 16 0.00 0.00
4:53 pm 16:53 Sunny 88 31.1 7 -13.9 4 4 NNW 25 41 29.54 1000 10 16 0.00 0.00
5:53 pm 17:53 Sunny 87 30.6 8 -13.3 5 5 NNW 24 39 29.53 1000 10 16 0.00 0.00
6:53 pm 18:53 Sunny 85 29.4 9 -12.8 5 5 NNW 14 22 29.56 1001 10 16 0.00 0.00
7:53 pm 19:53 Clear 82 27.8 10 -12.2 6 6 NNW 18 30 29.59 1002 10 16 0.00 0.00
8:53 pm 20:53 Clear 79 26.1 7 -13.9 6 6 NW 23 37 29.62 1003 10 16 0.00 0.00
9:53 pm 21:53 Clear 77 25 6 -14.4 6 6 NNW 24 39 29.64 1004 10 16 0.00 0.00
10:53 pm 22:53 Clear 75 23.9 7 -13.9 7 7 NW 22 35 29.66 1005 10 16 0.00 0.00
11:53 pm 23:53 Clear 74 23.3 8 -13.3 8 8 NW 20 31 29.68 1005 10 16 0.00 0.00

Powered by AerisWeather